SCP
0 0 0 0 0 0 0 0 0 0 0 0 0 0 0 0 0 0 0 0 0 -0 0 0 0 0 -0 -0 0 0 0 0 0 0 0 0 0 0 0 0 0 0 0 0 0 0 0 0 0 0 0 0 0 0
0 0 0 0 0 0 0 0 0 0 0 0 0 0 0 0 0 0 0 0 0 0 0 0 -0 -0 0 -0 0 0 0 0 0 0 0 0 0 0 0 0 0 0 0 0 0 0 0 0 0 0 0 0 0 0
0 0 0 0 0 0 0 -0 -0 0 0 0 0 0 0 0 0 0 0 0 0 0 0 0 -0 0 0 0 -0 0 0 0 0 0 0 0 0 0 0 0 0 0 0 0 0 0 0 0 0 0 0 0 0 0
0 0 0 0 0 0 0 -0 -0 -0 -0 0 0 0 0 0 0 0 0 0 0 0 0 0 0 0 0 0 0 0 -0 -0 -0 0 0 0 0 0 0 0 0 0 0 0 0 0 0 0 0 0 0 0 0 0
0 0 0 0 0 0 0 0 -0 -0 -0 -0 -0 0 0 0 0 0 0 0 0 0 0 0 0 0 0 0 0 -0 -0 -0 -0 -0 -0 0 0 0 0 0 0 0 0 0 0 0 0 0 0 0 0 0 0 0
0 0 0 0 0 0 0 0 0 -0 -0 -0 -0 0 0 0 0 0 0 0 0 0 0 0 0 0 0 0 0 0 0 -0 -0 0 0 0 0 0 0 0 0 0 0 0 0 0 0 0 0 0 0 0 0 0
0 0 0 0 -0 -0 -0 0 0 -0 -0 -0 -0 0 0 0 0 0 0 0 0 0 0 0 0 0 -0 0 0 0 0 0 0 0 0 0 0 0 0 0 0 0 0 0 0 0 0 0 0 0 0 0 0 0
0 0 0 0 -0 -0 -0 -0 0 -0 -0 -0 -0 0 0 0 0 0 0 0 0 0 0 0 0 0 0 0 0 0 0 0 0 0 0 0 0 0 0 0 0 0 0 0 0 0 0 0 0 0 0 0 0 0
0 0 0 0 -0 -0 0 0 0 0 -0 0 0 0 0 0 0 0 0 0 0 0 0 0 0 0 0 0 0 0 0 0 0 0 0 0 0 0 0 0 0 0 0 0 0 0 0 0 0 0 0 0 0 0
0 0 0 0 0 -0 -0 0 0 0 0 0 0 0 0 0 0 0 0 0 0 0 0 0 0 0 0 0 0 0 0 0 0 0 0 0 0 0 0 0 0 0 0 0 0 0 0 0 0 0 0 0 0 0
0 0 0 0 0 0 0 0 0 -0 0 0 0 0 0 0 0 0 0 0 0 0 0 0 0 0 0 0 0 0 0 0 0 0 0 0 0 0 0 0 0 0 0 0 0 0 0 0 0 0 0 0 0 0
0 0 0 0 0 0 0 0 0 0 0 0 0 0 0 0 0 0 0 0 0 0 0 0 0 0 0 0 0 0 0 0 0 0 0 0 0 0 -0 -0 -0 0 0 0 0 0 0 0 0 0 0 0 0 0
0 0 0 0 0 0 0 0 0 0 0 0 0 0 0 0 0 0 0 0 0 0 0 0 0 0 0 0 0 0 0 0 0 0 0 0 0 0 -0 -0 0 0 0 0 0 0 0 0 0 0 0 0 0 0
0 0 0 0 -0 0 0 0 0 0 0 0 0 0 0 0 0 0 0 0 0 0 0 0 0 0 0 0 0 0 0 0 0 0 0 0 0 0 0 0 -0 0 0 0 0 0 0 0 0 0 0 0 0 0
0 0 0 0 0 0 0 0 0 0 0 0 0 0 0 0 0 0 0 0 0 0 0 0 0 0 0 0 0 0 0 0 0 0 0 0 0 0 0 -0 0 0 0 0 0 0 0 0 0 0 0 0 0 0
0 0 0 0 0 0 0 0 0 0 0 0 0 0 0 0 0 0 0 0 0 0 0 0 0 0 0 0 0 0 0 0 0 0 0 0 0 0 0 0 0 0 0 0 0 0 0 0 0 0 0 0 0 0
0 0 0 0 0 0 0 0 0 0 0 0 0 0 0 0 0 0 0 0 0 0 0 0 0 0 0 0 0 0 0 0 0 0 0 0 0 0 0 0 0 0 0 0 0 0 0 0 0 0 0 0 0 0
0 0 0 0 0 0 0 0 0 0 0 0 0 0 0 0 0 0 0 0 0 0 0 0 0 0 0 0 0 0 0 0 0 0 0 0 0 0 0 0 0 -0 0 0 0 0 0 0 0 0 0 0 0 0
0 0 0 0 0 0 0 0 0 0 0 0 0 0 0 0 0 0 0 0 0 0 0 0 0 0 0 0 0 0 0 0 0 0 0 0 0 0 0 0 0 -0 0 0 0 0 0 0 0 0 0 0 0 0
0 0 0 0 0 0 0 0 0 0 0 0 0 0 0 0 0 0 0 0 0 0 0 0 0 0 0 0 0 0 0 0 0 0 0 0 0 0 0 0 0 0 0 0 0 -0 0 0 0 0 0 0 0 0
0 0 0 0 0 0 0 0 0 0 0 0 0 0 0 0 0 0 0 0 0 0 0 0 0 0 0 0 0 0 0 0 0 0 0 0 0 0 0 0 0 0 0 0 0 0 -0 0 0 0 0 0 0 0
0 0 0 0 0 0 0 0 0 0 0 0 0 0 0 0 0 0 0 0 0 0 0 0 0 0 0 0 0 0 0 0 0 0 0 -0 0 0 0 0 0 0 0 0 0 0 0 0 0 0 0 0 0 0
0 0 0 0 0 0 0 0 0 0 0 0 0 0 -0 0 0 0 0 0 0 0 0 0 0 0 0 0 0 0 0 0 0 0 0 0 0 0 0 0 0 0 0 0 0 0 0 0 0 0 0 0 0 0
0 0 0 0 0 0 0 0 0 0 0 0 -0 0 0 -0 0 0 0 0 0 0 0 0 0 0 0 0 0 0 0 0 0 0 0 0 0 0 0 0 0 -0 0 0 0 0 0 0 0 0 0 0 0 0
0 0 0 0 0 0 0 0 0 0 -0 -0 0 0 -0 0 0 0 0 0 0 0 0 0 0 0 0 0 0 0 0 0 0 0 0 0 0 0 0 0 0 -0 -0 0 0 0 0 0 0 0 0 0 0 0
0 0 0 0 0 0 0 0 0 0 -0 -0 0 0 0 0 0 0 0 0 0 0 0 0 0 0 0 0 0 0 0 0 0 0 0 -0 0 0 -0 0 0 -0 -0 -0 0 0 0 0 0 0 0 0 0 0
0 0 0 0 0 0 0 0 0 0 0 0 -0 -0 0 0 0 0 -0 -0 -0 0 0 0 -0 0 0 0 0 0 0 0 0 0 -0 -0 -0 0 0 0 0 0 0 0 0 0 0 0 0 0 0 0 0 0
0 0 0 0 0 0 0 0 0 0 -0 0 0 -0 -0 0 0 0 -0 -0 -0 0 0 0 -0 -0 0 0 0 0 0 0 0 0 0 0 -0 -0 0 0 0 0 0 0 0 0 0 0 0 0 0 0 0 0
0 0 0 0 0 -0 0 0 0 0 0 -0 0 0 0 0 0 0 -0 0 0 0 0 0 0 -0 0 0 0 -0 0 0 0 0 -0 0 0 -0 -0 -0 -0 0 0 0 0 0 0 0 0 0 0 0 0 0
-0 0 0 -0 -0 -0 -0 -0 0 0 0 0 0 0 0 0 0 0 0 0 -0 0 0 0 0 0 0 0 0 0 0 0 0 0 0 0 0 0 0 0 0 0 0 0 0 0 0 0 0 0 0 0 0 0
0 0 -0 -0 0 -0 -0 -0 -0 0 0 0 0 0 0 -0 0 0 0 -0 0 0 -0 0 0 0 0 0 0 0 0 0 0 0 0 0 0 0 0 0 0 0 0 0 0 0 -0 0 0 0 0 0 0 0
0 0 0 -0 -0 0 -0 -0 0 0 0 -0 0 0 -0 0 0 0 -0 0 0 -0 -0 0 0 0 0 0 0 0 0 0 0 0 0 0 0 0 0 0 0 0 0 0 0 0 -0 -0 0 0 0 0 0 0
0 0 0 -0 -0 -0 0 0 0 0 0 -0 -0 -0 0 0 0 0 -0 0 0 0 0 -0 -0 0 0 0 0 0 0 0 0 0 -0 0 0 0 0 0 0 0 0 0 0 -0 -0 -0 0 -0 -0 -0 0 0
Wind_Speed_500mb
60 55 53 53 54 55 48 52 52 53 52 46 38 35 33 34 30 20 12 16 18 10 20 21 19 12 13 12 7 12 4 9 7 6 2 4 3 6 6 5 3 5 3 4 4 5 7 17 4 5 8 8 18 22
61 58 55 54 53 52 45 49 51 51 50 46 35 33 35 35 28 15 12 11 11 9 8 20 23 25 17 15 9 11 5 2 6 4 4 5 5 5 6 5 4 3 6 4 5 5 13 23 27 11 13 16 22 29
62 60 57 56 56 54 47 46 50 51 49 43 34 30 29 27 23 22 20 13 10 8 8 10 12 16 19 17 14 7 5 4 5 7 6 5 8 1 4 5 6 5 6 6 11 9 12 16 13 14 16 17 20 22
65 63 59 57 56 56 52 44 49 49 47 43 32 26 19 16 17 17 20 19 8 3 0 1 6 10 13 16 15 11 12 15 14 11 9 6 6 3 4 6 2 4 1 9 8 11 19 10 16 19 21 21 24 27
66 64 61 59 58 58 54 44 50 51 48 44 31 23 8 5 10 11 14 17 19 4 2 3 2 7 6 7 11 8 6 8 11 7 7 5 6 6 5 4 5 2 5 3 5 9 3 3 12 19 23 26 28 31
64 63 64 64 63 61 53 44 50 50 46 43 29 18 4 4 14 7 3 10 17 15 4 2 2 1 1 6 10 18 15 11 12 8 7 7 5 1 4 4 4 8 12 8 11 5 9 7 7 19 22 25 27 29
64 66 68 69 67 63 56 54 57 51 46 37 21 10 4 7 11 4 1 3 12 12 6 5 4 2 1 6 8 11 15 11 8 8 6 6 5 4 4 5 26 17 17 18 15 12 5 11 6 14 20 24 24 24
61 67 72 70 65 65 71 71 63 53 46 35 14 12 11 10 10 8 7 5 8 6 3 3 3 2 1 2 4 5 7 8 7 7 6 5 6 2 3 13 28 22 18 13 12 13 8 4 6 11 20 19 21 26
60 66 71 70 68 76 82 77 71 58 46 33 16 14 15 15 7 9 11 15 12 5 2 3 3 2 2 3 4 3 4 4 4 4 5 5 4 4 6 35 32 28 13 16 13 6 4 4 6 12 15 20 22 26
55 61 66 66 66 77 83 84 76 64 47 29 13 7 6 6 10 13 6 4 4 5 7 6 6 3 6 4 3 4 3 4 4 4 7 1 2 2 14 23 24 23 15 18 14 11 7 6 7 9 12 16 19 23
52 56 60 64 61 76 79 81 79 69 45 24 10 8 8 9 7 6 5 6 6 6 11 9 17 3 8 4 4 0 4 3 4 5 4 3 4 12 27 28 25 20 16 12 8 11 10 10 10 12 15 18 22 25
54 54 58 63 56 75 76 74 71 67 53 41 29 38 16 8 6 6 6 4 8 6 11 8 8 12 7 7 5 5 2 4 3 12 5 4 5 26 38 34 28 22 19 16 10 13 17 18 18 18 18 21 29 31
57 55 57 63 53 74 74 72 69 66 58 32 5 6 5 7 3 11 13 7 6 12 16 13 6 8 7 6 6 4 6 3 12 5 4 4 17 34 38 36 32 24 21 18 14 21 24 23 19 16 16 17 22 25
62 57 54 55 61 72 74 74 76 65 24 7 5 8 10 9 10 11 9 6 11 13 23 16 10 6 5 6 3 5 4 6 4 5 6 7 29 40 39 36 34 29 25 20 22 25 25 23 18 15 14 17 17 17
63 59 50 42 67 71 76 80 77 46 11 8 7 10 11 13 13 9 14 10 12 24 27 14 9 6 4 5 1 6 7 6 6 5 4 14 36 45 44 39 31 31 29 24 33 29 25 20 14 10 9 11 14 14
63 60 37 59 66 69 74 78 50 7 7 8 11 9 12 9 12 4 9 14 19 29 20 9 6 5 5 4 7 8 6 8 4 5 11 26 39 42 42 38 32 32 31 30 36 30 22 15 9 4 5 8 9 12
59 56 61 64 69 66 76 49 7 5 7 7 9 16 21 26 24 21 14 9 15 12 4 6 9 5 7 4 5 6 7 3 10 14 22 27 40 45 42 38 36 36 33 35 36 28 19 10 5 6 4 1 6 7
60 59 59 65 61 72 53 9 5 6 9 13 12 15 15 23 26 25 13 9 13 7 2 3 11 8 6 7 5 7 9 12 16 23 29 33 36 40 39 38 38 37 36 41 34 24 15 6 4 7 6 4 2 3
64 65 63 47 55 53 12 5 4 8 11 15 19 23 27 29 29 22 21 11 21 20 20 4 4 2 5 10 9 11 18 22 27 32 32 33 33 36 37 36 38 37 40 42 34 24 16 9 6 6 6 5 4 3
57 58 49 44 52 13 9 8 8 9 11 10 25 19 36 28 20 16 6 14 20 17 7 6 8 11 6 11 13 11 16 31 41 38 33 36 35 35 38 41 36 37 43 40 34 28 19 11 11 11 9 4 4 2
62 42 49 54 20 10 9 8 9 10 15 12 20 27 21 19 13 7 4 19 7 5 4 4 2 7 17 22 12 13 18 35 42 29 39 41 42 39 41 38 37 43 41 40 34 29 21 14 14 11 7 4 2 5
41 52 49 16 4 5 10 10 12 19 11 15 20 15 11 10 8 7 6 9 8 11 14 20 19 9 23 26 15 13 21 35 35 17 29 33 45 45 43 42 46 48 43 40 35 24 17 15 15 15 9 5 1 6
40 23 10 5 5 6 10 9 7 6 5 17 23 7 5 12 12 9 9 14 7 27 25 19 14 13 10 15 17 18 24 32 34 21 30 32 32 37 39 42 46 46 43 43 36 27 19 16 15 19 16 13 7 2
14 5 5 5 5 8 9 6 8 9 7 10 6 12 9 7 13 14 3 10 31 38 38 20 7 5 12 14 13 18 25 32 33 25 30 30 31 38 38 38 43 43 36 32 33 27 21 18 16 17 20 20 15 7
6 3 4 7 6 6 5 6 6 3 4 14 6 4 7 15 5 6 5 11 35 49 45 35 17 5 6 5 7 12 17 25 32 26 29 29 29 40 40 38 40 41 39 36 31 23 18 19 16 16 23 24 20 12
4 5 7 4 4 4 5 7 6 8 7 6 8 12 10 5 3 4 6 22 27 36 36 31 25 14 10 8 10 8 11 18 26 29 30 34 33 43 48 45 41 41 39 34 28 22 20 22 17 10 14 21 22 19
5 5 6 8 8 10 8 6 4 5 6 4 6 9 6 5 2 4 13 30 44 38 27 24 23 8 4 6 6 8 9 16 14 16 25 33 32 33 35 39 39 32 33 31 28 26 25 22 17 11 7 13 20 22
8 7 6 8 8 5 5 4 3 3 4 8 12 6 10 5 6 17 22 38 37 30 23 27 25 9 8 5 6 14 20 24 20 16 21 30 29 29 29 28 27 22 24 31 29 27 25 23 17 13 7 8 13 18
8 8 8 9 5 4 3 3 5 6 12 13 6 5 6 8 16 21 26 28 27 25 28 28 22 9 3 7 12 19 29 31 35 33 29 31 35 35 30 29 25 21 23 28 30 25 20 16 16 14 9 8 9 13
7 8 6 5 3 3 2 7 9 7 18 15 5 3 14 22 29 39 41 40 40 38 32 25 21 11 6 5 15 17 12 28 34 37 34 23 19 26 35 35 33 30 26 30 29 26 24 23 21 24 20 14 12 10
12 7 5 4 6 3 8 7 24 23 19 26 22 10 8 9 18 43 43 47 48 41 38 34 24 11 6 16 8 11 11 8 19 25 25 19 14 12 25 35 38 38 34 30 28 26 26 27 28 30 27 20 15 13
9 4 5 4 6 7 8 4 6 8 12 23 31 29 21 10 11 41 52 55 49 42 36 42 34 28 19 14 10 15 15 9 12 13 15 15 10 12 22 30 33 32 32 34 31 27 28 25 26 31 29 24 17 12
12 13 7 6 6 6 8 6 5 9 6 7 19 23 22 11 10 30 44 63 51 40 42 43 28 23 21 17 18 27 29 28 14 23 18 18 12 19 25 26 26 24 24 24 25 26 26 26 27 27 27 25 18 13
Wind_Direction_500mb
2 2 2 1 2 3 5 3 2 2 359 1 360 358 2 5 6 10 29 50 71 78 44 51 51 30 28 29 20 344 272 24 23 64 65 104 95 81 101 46 21 33 17 81 122 143 194 12 76 283 18 351 347 334
2 1 360 359 0 4 3 3 0 359 360 358 358 358 358 4 14 38 57 63 57 71 83 77 62 46 41 31 15 25 73 26 26 71 76 113 111 106 138 146 63 179 22 103 20 85 69 65 95 68 15 342 336 329
1 1 0 359 358 360 0 1 359 355 356 358 354 353 3 14 39 67 69 53 62 62 64 65 42 45 48 36 32 11 51 83 70 89 96 91 96 264 131 116 120 86 9 96 165 109 114 102 86 42 8 353 341 332
0 360 360 360 359 357 356 355 357 353 351 352 349 350 359 31 44 52 54 42 51 33 324 166 67 54 49 36 35 70 88 91 88 72 76 74 96 357 90 95 79 22 85 126 101 108 134 104 33 9 2 360 351 341
359 360 0 0 360 358 355 354 356 351 347 346 341 341 346 40 31 23 39 35 29 33 298 280 212 38 37 47 45 94 108 69 51 68 56 73 99 141 86 148 109 359 121 178 104 127 56 69 12 346 358 356 350 346
2 2 1 1 359 359 359 356 354 349 344 341 335 338 351 325 323 327 295 10 13 8 348 266 293 168 82 113 105 129 115 81 88 78 90 95 89 74 122 106 107 108 101 90 127 121 126 58 1 344 352 351 352 352
4 4 2 1 360 1 1 357 351 347 343 340 327 322 323 351 359 8 110 336 354 4 3 304 332 206 238 150 147 132 126 112 98 104 82 110 107 63 114 154 160 146 121 105 91 98 117 30 359 353 352 351 353 356
5 4 4 4 5 5 358 353 352 347 342 340 308 280 279 288 297 298 330 321 325 343 342 296 279 300 47 98 125 148 149 128 68 108 116 120 125 116 154 138 152 150 139 116 91 41 101 44 21 19 354 2 9 9
1 1 2 3 2 359 356 355 354 349 342 338 311 268 270 269 245 235 292 294 277 256 268 228 253 189 187 128 128 105 136 89 106 105 97 174 150 211 159 159 169 170 170 158 134 87 112 70 47 12 22 25 24 14
353 355 355 355 354 355 353 350 350 350 344 334 310 235 229 222 242 292 297 248 240 224 217 245 206 224 187 159 118 162 42 105 153 82 123 55 213 156 159 166 165 169 162 158 154 146 136 101 81 53 51 36 34 27
337 345 348 347 345 351 350 346 344 346 350 350 313 252 251 251 245 230 246 227 173 227 207 227 202 212 204 206 151 2 126 131 193 136 238 193 237 180 165 159 155 155 150 148 161 139 136 137 123 104 78 54 46 40
328 333 339 340 338 346 346 347 346 346 343 323 296 281 274 201 195 230 214 184 214 231 193 192 195 193 181 180 170 163 159 183 205 145 203 230 167 162 161 160 160 156 151 138 143 133 138 135 126 108 88 70 58 51
324 326 331 334 330 340 342 341 338 333 331 317 281 276 229 167 193 219 196 199 214 190 180 174 161 164 142 169 102 175 185 125 134 199 242 222 147 163 164 160 158 155 149 148 139 138 137 135 126 109 90 69 55 50
323 326 327 325 324 334 336 333 332 328 324 278 247 278 207 195 227 210 214 197 194 164 160 154 125 177 149 155 130 179 88 158 195 223 231 163 174 168 167 166 163 161 158 157 155 145 139 134 126 101 76 59 49 40
323 328 328 319 326 330 331 328 326 316 232 236 215 244 229 265 277 278 268 252 201 168 148 126 109 158 123 127 104 119 169 226 227 225 178 159 166 165 167 169 166 163 164 165 162 153 146 138 128 104 54 28 25 34
325 332 329 329 323 328 329 328 327 256 233 234 237 271 271 289 289 299 286 253 199 165 141 119 128 163 163 158 176 200 192 223 200 193 155 158 164 167 170 171 170 167 170 171 167 162 157 152 143 116 46 33 60 66
325 333 333 331 326 329 330 323 315 255 255 251 261 263 272 278 267 288 317 302 195 179 157 136 178 160 120 186 207 189 212 192 165 157 162 169 171 171 172 170 171 172 173 173 172 172 174 189 262 285 209 213 66 65
326 332 333 328 324 333 333 322 294 270 259 259 268 290 294 284 283 300 301 245 171 178 78 206 128 183 195 195 209 204 179 167 155 158 157 161 168 172 175 172 174 175 177 172 172 177 187 181 72 99 152 200 248 356
323 326 328 324 330 332 296 301 295 279 267 284 282 302 305 301 298 298 278 253 189 184 145 87 31 290 225 210 205 176 184 173 163 156 158 162 169 173 173 175 174 175 178 174 176 179 178 157 130 128 172 164 135 97
320 323 319 320 327 300 280 272 280 268 274 297 297 303 313 303 297 297 223 154 168 155 139 159 164 255 293 310 221 199 201 183 165 150 157 167 173 177 177 174 174 178 176 178 178 177 176 173 159 136 128 169 180 169
324 324 322 325 314 230 267 290 264 256 295 293 295 310 301 308 317 315 176 168 181 60 355 262 195 356 330 317 246 209 195 185 179 178 180 173 178 176 175 176 179 174 176 180 181 183 187 190 193 185 154 111 35 280
323 320 327 334 277 267 267 255 265 293 280 279 307 305 286 315 351 34 64 60 61 16 345 318 304 272 249 265 222 195 186 181 179 171 179 179 172 175 177 178 177 179 181 184 186 192 194 201 213 216 207 208 65 9
322 328 316 292 291 260 270 288 275 264 281 316 315 290 35 332 349 24 73 31 9 347 336 325 310 274 219 192 183 176 176 178 176 172 174 178 182 179 178 181 181 181 184 188 191 195 205 218 228 231 231 233 231 320
338 335 299 295 270 276 305 260 248 273 294 327 318 340 350 326 27 51 51 329 359 18 21 17 28 128 146 151 173 178 181 184 183 175 179 181 180 181 182 181 181 184 186 190 195 204 219 234 244 239 237 232 227 233
337 292 271 291 251 275 273 291 289 306 312 326 310 310 345 8 60 13 351 352 11 18 23 23 14 13 66 242 223 198 191 197 197 188 184 184 181 177 178 181 185 188 193 199 207 216 228 223 235 253 249 235 220 216
277 241 209 270 284 249 309 310 343 334 320 331 352 336 2 66 69 41 18 353 352 346 348 9 2 349 326 297 258 244 215 200 197 202 199 191 188 186 181 183 190 198 200 206 213 218 215 214 226 249 254 237 220 214
284 284 255 263 278 294 283 287 317 352 345 2 324 327 342 32 41 45 5 350 346 349 344 332 331 300 216 266 260 217 189 180 187 205 205 195 192 194 194 192 197 198 202 207 210 209 204 208 217 224 236 221 218 219
265 280 271 311 294 262 275 305 300 20 348 2 340 330 337 7 32 353 342 331 336 336 336 340 323 276 242 247 280 206 188 180 171 164 171 184 196 206 208 213 221 211 215 214 206 200 204 215 221 220 213 187 197 205
262 273 281 282 286 271 256 294 357 14 345 322 312 333 42 61 24 9 0 356 348 352 350 352 20 286 226 308 267 241 199 192 188 188 187 188 192 196 185 186 194 194 192 191 195 196 197 212 219 216 202 185 192 192
277 316 276 278 278 270 7 357 333 358 42 23 313 192 113 92 51 36 24 16 9 7 3 2 28 38 85 240 9 56 195 202 208 212 209 204 206 207 198 193 191 193 189 189 194 200 208 221 211 205 206 207 201 201
291 290 278 275 274 302 358 92 93 79 59 31 23 20 126 136 37 24 19 12 7 358 360 357 0 11 332 215 252 68 71 151 199 216 227 232 231 235 214 209 206 207 207 207 208 209 208 216 216 210 212 216 220 232
304 304 290 279 289 337 14 144 149 92 52 38 37 40 49 55 38 19 18 9 6 353 351 354 343 325 337 203 252 290 276 207 162 154 184 185 187 217 196 192 197 203 210 217 217 217 211 217 220 216 215 217 222 234
306 302 275 297 304 329 348 12 96 118 145 84 42 35 28 30 40 2 1 9 10 2 351 346 338 311 307 295 246 238 252 250 224 211 199 197 203 180 172 172 176 182 190 194 197 200 207 214 215 215 217 213 216 221
Wind_Speed_850mb
60 55 53 53 54 55 48 52 52 53 52 46 38 35 33 34 30 20 12 16 18 10 20 21 19 12 13 12 7 12 4 9 7 6 2 4 3 6 6 5 3 5 3 4 4 5 7 17 4 5 8 8 18 22
61 58 55 54 53 52 45 49 51 51 50 46 35 33 35 35 28 15 12 11 11 9 8 20 23 25 17 15 9 11 5 2 6 4 4 5 5 5 6 5 4 3 6 4 5 5 13 23 27 11 13 16 22 29
62 60 57 56 56 54 47 46 50 51 49 43 34 30 29 27 23 22 20 13 10 8 8 10 12 16 19 17 14 7 5 4 5 7 6 5 8 1 4 5 6 5 6 6 11 9 12 16 13 14 16 17 20 22
65 63 59 57 56 56 52 44 49 49 47 43 32 26 19 16 17 17 20 19 8 3 0 1 6 10 13 16 15 11 12 15 14 11 9 6 6 3 4 6 2 4 1 9 8 11 19 10 16 19 21 21 24 27
66 64 61 59 58 58 54 44 50 51 48 44 31 23 8 5 10 11 14 17 19 4 2 3 2 7 6 7 11 8 6 8 11 7 7 5 6 6 5 4 5 2 5 3 5 9 3 3 12 19 23 26 28 31
64 63 64 64 63 61 53 44 50 50 46 43 29 18 4 4 14 7 3 10 17 15 4 2 2 1 1 6 10 18 15 11 12 8 7 7 5 1 4 4 4 8 12 8 11 5 9 7 7 19 22 25 27 29
64 66 68 69 67 63 56 54 57 51 46 37 21 10 4 7 11 4 1 3 12 12 6 5 4 2 1 6 8 11 15 11 8 8 6 6 5 4 4 5 26 17 17 18 15 12 5 11 6 14 20 24 24 24
61 67 72 70 65 65 71 71 63 53 46 35 14 12 11 10 10 8 7 5 8 6 3 3 3 2 1 2 4 5 7 8 7 7 6 5 6 2 3 13 28 22 18 13 12 13 8 4 6 11 20 19 21 26
60 66 71 70 68 76 82 77 71 58 46 33 16 14 15 15 7 9 11 15 12 5 2 3 3 2 2 3 4 3 4 4 4 4 5 5 4 4 6 35 32 28 13 16 13 6 4 4 6 12 15 20 22 26
55 61 66 66 66 77 83 84 76 64 47 29 13 7 6 6 10 13 6 4 4 5 7 6 6 3 6 4 3 4 3 4 4 4 7 1 2 2 14 23 24 23 15 18 14 11 7 6 7 9 12 16 19 23
52 56 60 64 61 76 79 81 79 69 45 24 10 8 8 9 7 6 5 6 6 6 11 9 17 3 8 4 4 0 4 3 4 5 4 3 4 12 27 28 25 20 16 12 8 11 10 10 10 12 15 18 22 25
54 54 58 63 56 75 76 74 71 67 53 41 29 38 16 8 6 6 6 4 8 6 11 8 8 12 7 7 5 5 2 4 3 12 5 4 5 26 38 34 28 22 19 16 10 13 17 18 18 18 18 21 29 31
57 55 57 63 53 74 74 72 69 66 58 32 5 6 5 7 3 11 13 7 6 12 16 13 6 8 7 6 6 4 6 3 12 5 4 4 17 34 38 36 32 24 21 18 14 21 24 23 19 16 16 17 22 25
62 57 54 55 61 72 74 74 76 65 24 7 5 8 10 9 10 11 9 6 11 13 23 16 10 6 5 6 3 5 4 6 4 5 6 7 29 40 39 36 34 29 25 20 22 25 25 23 18 15 14 17 17 17
63 59 50 42 67 71 76 80 77 46 11 8 7 10 11 13 13 9 14 10 12 24 27 14 9 6 4 5 1 6 7 6 6 5 4 14 36 45 44 39 31 31 29 24 33 29 25 20 14 10 9 11 14 14
63 60 37 59 66 69 74 78 50 7 7 8 11 9 12 9 12 4 9 14 19 29 20 9 6 5 5 4 7 8 6 8 4 5 11 26 39 42 42 38 32 32 31 30 36 30 22 15 9 4 5 8 9 12
59 56 61 64 69 66 76 49 7 5 7 7 9 16 21 26 24 21 14 9 15 12 4 6 9 5 7 4 5 6 7 3 10 14 22 27 40 45 42 38 36 36 33 35 36 28 19 10 5 6 4 1 6 7
60 59 59 65 61 72 53 9 5 6 9 13 12 15 15 23 26 25 13 9 13 7 2 3 11 8 6 7 5 7 9 12 16 23 29 33 36 40 39 38 38 37 36 41 34 24 15 6 4 7 6 4 2 3
64 65 63 47 55 53 12 5 4 8 11 15 19 23 27 29 29 22 21 11 21 20 20 4 4 2 5 10 9 11 18 22 27 32 32 33 33 36 37 36 38 37 40 42 34 24 16 9 6 6 6 5 4 3
57 58 49 44 52 13 9 8 8 9 11 10 25 19 36 28 20 16 6 14 20 17 7 6 8 11 6 11 13 11 16 31 41 38 33 36 35 35 38 41 36 37 43 40 34 28 19 11 11 11 9 4 4 2
62 42 49 54 20 10 9 8 9 10 15 12 20 27 21 19 13 7 4 19 7 5 4 4 2 7 17 22 12 13 18 35 42 29 39 41 42 39 41 38 37 43 41 40 34 29 21 14 14 11 7 4 2 5
41 52 49 16 4 5 10 10 12 19 11 15 20 15 11 10 8 7 6 9 8 11 14 20 19 9 23 26 15 13 21 35 35 17 29 33 45 45 43 42 46 48 43 40 35 24 17 15 15 15 9 5 1 6
40 23 10 5 5 6 10 9 7 6 5 17 23 7 5 12 12 9 9 14 7 27 25 19 14 13 10 15 17 18 24 32 34 21 30 32 32 37 39 42 46 46 43 43 36 27 19 16 15 19 16 13 7 2
14 5 5 5 5 8 9 6 8 9 7 10 6 12 9 7 13 14 3 10 31 38 38 20 7 5 12 14 13 18 25 32 33 25 30 30 31 38 38 38 43 43 36 32 33 27 21 18 16 17 20 20 15 7
6 3 4 7 6 6 5 6 6 3 4 14 6 4 7 15 5 6 5 11 35 49 45 35 17 5 6 5 7 12 17 25 32 26 29 29 29 40 40 38 40 41 39 36 31 23 18 19 16 16 23 24 20 12
4 5 7 4 4 4 5 7 6 8 7 6 8 12 10 5 3 4 6 22 27 36 36 31 25 14 10 8 10 8 11 18 26 29 30 34 33 43 48 45 41 41 39 34 28 22 20 22 17 10 14 21 22 19
5 5 6 8 8 10 8 6 4 5 6 4 6 9 6 5 2 4 13 30 44 38 27 24 23 8 4 6 6 8 9 16 14 16 25 33 32 33 35 39 39 32 33 31 28 26 25 22 17 11 7 13 20 22
8 7 6 8 8 5 5 4 3 3 4 8 12 6 10 5 6 17 22 38 37 30 23 27 25 9 8 5 6 14 20 24 20 16 21 30 29 29 29 28 27 22 24 31 29 27 25 23 17 13 7 8 13 18
8 8 8 9 5 4 3 3 5 6 12 13 6 5 6 8 16 21 26 28 27 25 28 28 22 9 3 7 12 19 29 31 35 33 29 31 35 35 30 29 25 21 23 28 30 25 20 16 16 14 9 8 9 13
7 8 6 5 3 3 2 7 9 7 18 15 5 3 14 22 29 39 41 40 40 38 32 25 21 11 6 5 15 17 12 28 34 37 34 23 19 26 35 35 33 30 26 30 29 26 24 23 21 24 20 14 12 10
12 7 5 4 6 3 8 7 24 23 19 26 22 10 8 9 18 43 43 47 48 41 38 34 24 11 6 16 8 11 11 8 19 25 25 19 14 12 25 35 38 38 34 30 28 26 26 27 28 30 27 20 15 13
9 4 5 4 6 7 8 4 6 8 12 23 31 29 21 10 11 41 52 55 49 42 36 42 34 28 19 14 10 15 15 9 12 13 15 15 10 12 22 30 33 32 32 34 31 27 28 25 26 31 29 24 17 12
12 13 7 6 6 6 8 6 5 9 6 7 19 23 22 11 10 30 44 63 51 40 42 43 28 23 21 17 18 27 29 28 14 23 18 18 12 19 25 26 26 24 24 24 25 26 26 26 27 27 27 25 18 13
Wind_Direction_850mb
2 2 2 1 2 3 5 3 2 2 359 1 360 358 2 5 6 10 29 50 71 78 44 51 51 30 28 29 20 344 272 24 23 64 65 104 95 81 101 46 21 33 17 81 122 143 194 12 76 283 18 351 347 334
2 1 360 359 0 4 3 3 0 359 360 358 358 358 358 4 14 38 57 63 57 71 83 77 62 46 41 31 15 25 73 26 26 71 76 113 111 106 138 146 63 179 22 103 20 85 69 65 95 68 15 342 336 329
1 1 0 359 358 360 0 1 359 355 356 358 354 353 3 14 39 67 69 53 62 62 64 65 42 45 48 36 32 11 51 83 70 89 96 91 96 264 131 116 120 86 9 96 165 109 114 102 86 42 8 353 341 332
0 360 360 360 359 357 356 355 357 353 351 352 349 350 359 31 44 52 54 42 51 33 324 166 67 54 49 36 35 70 88 91 88 72 76 74 96 357 90 95 79 22 85 126 101 108 134 104 33 9 2 360 351 341
359 360 0 0 360 358 355 354 356 351 347 346 341 341 346 40 31 23 39 35 29 33 298 280 212 38 37 47 45 94 108 69 51 68 56 73 99 141 86 148 109 359 121 178 104 127 56 69 12 346 358 356 350 346
2 2 1 1 359 359 359 356 354 349 344 341 335 338 351 325 323 327 295 10 13 8 348 266 293 168 82 113 105 129 115 81 88 78 90 95 89 74 122 106 107 108 101 90 127 121 126 58 1 344 352 351 352 352
4 4 2 1 360 1 1 357 351 347 343 340 327 322 323 351 359 8 110 336 354 4 3 304 332 206 238 150 147 132 126 112 98 104 82 110 107 63 114 154 160 146 121 105 91 98 117 30 359 353 352 351 353 356
5 4 4 4 5 5 358 353 352 347 342 340 308 280 279 288 297 298 330 321 325 343 342 296 279 300 47 98 125 148 149 128 68 108 116 120 125 116 154 138 152 150 139 116 91 41 101 44 21 19 354 2 9 9
1 1 2 3 2 359 356 355 354 349 342 338 311 268 270 269 245 235 292 294 277 256 268 228 253 189 187 128 128 105 136 89 106 105 97 174 150 211 159 159 169 170 170 158 134 87 112 70 47 12 22 25 24 14
353 355 355 355 354 355 353 350 350 350 344 334 310 235 229 222 242 292 297 248 240 224 217 245 206 224 187 159 118 162 42 105 153 82 123 55 213 156 159 166 165 169 162 158 154 146 136 101 81 53 51 36 34 27
337 345 348 347 345 351 350 346 344 346 350 350 313 252 251 251 245 230 246 227 173 227 207 227 202 212 204 206 151 2 126 131 193 136 238 193 237 180 165 159 155 155 150 148 161 139 136 137 123 104 78 54 46 40
328 333 339 340 338 346 346 347 346 346 343 323 296 281 274 201 195 230 214 184 214 231 193 192 195 193 181 180 170 163 159 183 205 145 203 230 167 162 161 160 160 156 151 138 143 133 138 135 126 108 88 70 58 51
324 326 331 334 330 340 342 341 338 333 331 317 281 276 229 167 193 219 196 199 214 190 180 174 161 164 142 169 102 175 185 125 134 199 242 222 147 163 164 160 158 155 149 148 139 138 137 135 126 109 90 69 55 50
323 326 327 325 324 334 336 333 332 328 324 278 247 278 207 195 227 210 214 197 194 164 160 154 125 177 149 155 130 179 88 158 195 223 231 163 174 168 167 166 163 161 158 157 155 145 139 134 126 101 76 59 49 40
323 328 328 319 326 330 331 328 326 316 232 236 215 244 229 265 277 278 268 252 201 168 148 126 109 158 123 127 104 119 169 226 227 225 178 159 166 165 167 169 166 163 164 165 162 153 146 138 128 104 54 28 25 34
325 332 329 329 323 328 329 328 327 256 233 234 237 271 271 289 289 299 286 253 199 165 141 119 128 163 163 158 176 200 192 223 200 193 155 158 164 167 170 171 170 167 170 171 167 162 157 152 143 116 46 33 60 66
325 333 333 331 326 329 330 323 315 255 255 251 261 263 272 278 267 288 317 302 195 179 157 136 178 160 120 186 207 189 212 192 165 157 162 169 171 171 172 170 171 172 173 173 172 172 174 189 262 285 209 213 66 65
326 332 333 328 324 333 333 322 294 270 259 259 268 290 294 284 283 300 301 245 171 178 78 206 128 183 195 195 209 204 179 167 155 158 157 161 168 172 175 172 174 175 177 172 172 177 187 181 72 99 152 200 248 356
323 326 328 324 330 332 296 301 295 279 267 284 282 302 305 301 298 298 278 253 189 184 145 87 31 290 225 210 205 176 184 173 163 156 158 162 169 173 173 175 174 175 178 174 176 179 178 157 130 128 172 164 135 97
320 323 319 320 327 300 280 272 280 268 274 297 297 303 313 303 297 297 223 154 168 155 139 159 164 255 293 310 221 199 201 183 165 150 157 167 173 177 177 174 174 178 176 178 178 177 176 173 159 136 128 169 180 169
324 324 322 325 314 230 267 290 264 256 295 293 295 310 301 308 317 315 176 168 181 60 355 262 195 356 330 317 246 209 195 185 179 178 180 173 178 176 175 176 179 174 176 180 181 183 187 190 193 185 154 111 35 280
323 320 327 334 277 267 267 255 265 293 280 279 307 305 286 315 351 34 64 60 61 16 345 318 304 272 249 265 222 195 186 181 179 171 179 179 172 175 177 178 177 179 181 184 186 192 194 201 213 216 207 208 65 9
322 328 316 292 291 260 270 288 275 264 281 316 315 290 35 332 349 24 73 31 9 347 336 325 310 274 219 192 183 176 176 178 176 172 174 178 182 179 178 181 181 181 184 188 191 195 205 218 228 231 231 233 231 320
338 335 299 295 270 276 305 260 248 273 294 327 318 340 350 326 27 51 51 329 359 18 21 17 28 128 146 151 173 178 181 184 183 175 179 181 180 181 182 181 181 184 186 190 195 204 219 234 244 239 237 232 227 233
337 292 271 291 251 275 273 291 289 306 312 326 310 310 345 8 60 13 351 352 11 18 23 23 14 13 66 242 223 198 191 197 197 188 184 184 181 177 178 181 185 188 193 199 207 216 228 223 235 253 249 235 220 216
277 241 209 270 284 249 309 310 343 334 320 331 352 336 2 66 69 41 18 353 352 346 348 9 2 349 326 297 258 244 215 200 197 202 199 191 188 186 181 183 190 198 200 206 213 218 215 214 226 249 254 237 220 214
284 284 255 263 278 294 283 287 317 352 345 2 324 327 342 32 41 45 5 350 346 349 344 332 331 300 216 266 260 217 189 180 187 205 205 195 192 194 194 192 197 198 202 207 210 209 204 208 217 224 236 221 218 219
265 280 271 311 294 262 275 305 300 20 348 2 340 330 337 7 32 353 342 331 336 336 336 340 323 276 242 247 280 206 188 180 171 164 171 184 196 206 208 213 221 211 215 214 206 200 204 215 221 220 213 187 197 205
262 273 281 282 286 271 256 294 357 14 345 322 312 333 42 61 24 9 0 356 348 352 350 352 20 286 226 308 267 241 199 192 188 188 187 188 192 196 185 186 194 194 192 191 195 196 197 212 219 216 202 185 192 192
277 316 276 278 278 270 7 357 333 358 42 23 313 192 113 92 51 36 24 16 9 7 3 2 28 38 85 240 9 56 195 202 208 212 209 204 206 207 198 193 191 193 189 189 194 200 208 221 211 205 206 207 201 201
291 290 278 275 274 302 358 92 93 79 59 31 23 20 126 136 37 24 19 12 7 358 360 357 0 11 332 215 252 68 71 151 199 216 227 232 231 235 214 209 206 207 207 207 208 209 208 216 216 210 212 216 220 232
304 304 290 279 289 337 14 144 149 92 52 38 37 40 49 55 38 19 18 9 6 353 351 354 343 325 337 203 252 290 276 207 162 154 184 185 187 217 196 192 197 203 210 217 217 217 211 217 220 216 215 217 222 234
306 302 275 297 304 329 348 12 96 118 145 84 42 35 28 30 40 2 1 9 10 2 351 346 338 311 307 295 246 238 252 250 224 211 199 197 203 180 172 172 176 182 190 194 197 200 207 214 215 215 217 213 216 221